Tracking 29091 objects as of 18-Jul-2024
HD Live streaming from Space Station
objects crossing your sky now

SL-14 R/B

Track SL-14 R/B now!
10-day predictions


NORAD ID: 17296
Int'l Code: 1987-003B
Perigee: 609.9 km
Apogee: 634.7 km
Inclination: 82.5 °
Period: 97.0 minutes
Semi major axis: 6993 km
RCS: 4.4495 m2 (large)
Launch date: January 14, 1987
Source: Commonwealth of Independent States (former USSR) (CIS)
Launch site: PLESETSK MISSILE AND SPACE COMPLEX (PKMTR)

Note: This is a ROCKET BODY
Your satellite tracking list
Your tracking list is empty




NASA's NSSDC Master Catalog

Two Line Element Set (TLE):
1 17296U 87003B   24199.86245329  .00001185  00000-0  13758-3 0  9999
2 17296  82.5305 123.8239 0017710 331.6352  28.3897 14.84494909  5674
Source of the keplerian elements: AFSPC